[[{"header":{"parameterUnit":"m.s-1","parameterCategory":1,"la1":30.2991,"la2":30.254,"lo1":-89.0895,"lo2":-89.0444,"dy":0.0017,"dx":0.0017,"nx":28,"ny":28,"refTime":"2025-06-03T03:00:00:Z","depth":0,"parameterNumber":2,"parameterNumberName":"U-component_of_WINDS"},"data":[0,0,0,0,0,0,0,0,0,0,0,0,0,0,0,0,0,0,0,0,0,0,0,0,0,0,0,0,0,0,0,0,0,0,0,0,0,0,0,0,0,0,0,0,0,0,0,0,0,0,0,0,0,0,0,0,0,0,-4.1326,-4.1326,0,-4.1322,-4.1322,-4.1322,-4.1229,-4.1226,-4.1224,-4.1222,-4.1217,-4.1219,-4.1221,0,0,0,0,0,0,0,0,0,0,0,0,0,-4.1256,-4.1257,-4.1326,-4.1326,-4.1326,-4.1322,-4.1322,-4.1322,-4.1229,-4.1226,-4.1223,-4.1221,-4.1216,-4.1219,-4.1221,0,0,0,0,0,0,0,0,0,0,0,0,0,-4.1272,-4.1258,-4.1326,-4.1279,-4.1275,-4.1322,-4.1322,-4.1322,-4.123,-4.1226,-4.1223,-4.1219,-4.1215,-4.1219,-4.1222,-4.1313,0,0,-4.1231,-4.1233,0,0,0,0,0,0,0,0,-4.1272,-4.1275,-4.1286,-4.1283,-4.1278,-4.1272,-4.1295,-4.1319,-4.1231,-4.1247,-4.1222,-4.1218,-4.1238,-4.1239,-4.1246,-4.1312,-4.1312,-4.1231,-4.1233,-4.1235,-4.1236,0,0,0,0,0,0,0,-4.127,-4.1275,-4.1324,-4.1287,-4.1282,-4.1259,-4.1257,-4.1299,-4.1263,-4.1245,-4.1239,-4.1239,-4.1235,-4.1243,-4.1245,-4.1312,-4.1231,-4.1234,-4.1236,-4.1237,-4.1453,-4.1456,0,0,0,0,0,0,-4.1276,-4.1274,-4.1324,-4.1324,-4.1266,-4.1263,-4.1261,-4.1278,-4.1262,-4.1256,-4.1242,-4.1235,-4.124,-4.1242,-4.1245,-4.1349,-4.1235,-4.1238,-4.1239,-4.1449,-4.1454,-4.1458,0,0,0,0,0,0,-4.1275,-4.1281,-4.1325,-4.1298,-4.1301,-4.1268,-4.1287,-4.1279,-4.1287,-4.126,-4.1253,-4.1257,-4.1237,-4.124,-4.1296,-4.1348,-4.1239,-4.1242,-4.1444,-4.145,-4.1456,-4.1559,0,0,0,0,0,0,-4.1273,-4.1281,-4.1315,-4.1299,-4.1303,-4.1376,-4.129,-4.1282,-4.1293,-4.1283,-4.1272,-4.1267,-4.1235,-4.1292,-4.13,-4.135,-4.1244,-4.1439,-4.1447,-4.1454,-4.1551,-4.1568,-4.1582,0,0,0,0,0,-4.1271,-4.1344,-4.1317,-4.1324,-4.1345,-4.1379,-4.1382,-4.1343,-4.1298,-4.1331,-4.1314,-4.1267,-4.1342,-4.1299,-4.1306,-4.1358,-4.1436,-4.1445,-4.1453,-4.1544,-4.1565,-4.1582,0,0,0,0,0,0,-4.1366,-4.1341,-4.1311,-4.1381,-4.1383,-4.1363,-4.1404,-4.1366,-4.1381,-4.1371,-4.1323,-4.1322,-4.1385,-4.1378,-4.133,-4.1446,-4.1381,-4.1391,-4.1447,-4.1467,-4.1482,-4.1481,-4.1247,0,0,0,0,0,-4.1396,-4.1426,-4.1403,-4.1467,-4.147,-4.1438,-4.1451,-4.1422,-4.1422,-4.1422,-4.1408,-4.141,-4.1434,-4.1451,-4.1471,-4.1551,-4.1547,-4.1591,-4.1607,-4.162,-4.1628,-4.167,-4.1689,-4.1486,-4.1486,-4.1486,0,0,-4.1456,-4.1447,-4.1468,-4.1486,-4.1484,-4.1516,-4.1438,-4.1476,-4.1499,-4.1427,-4.1478,-4.147,-4.1469,-4.1537,-4.1566,-4.1533,-4.1684,-4.1631,-4.1641,-4.1643,-4.168,-4.17,-4.1717,-4.1492,-4.1491,-4.149,0,0,-4.1582,-4.1579,-4.1632,-4.1632,-4.163,-4.1609,-4.1622,-4.1609,-4.16,-4.1651,-4.1598,-4.1626,-4.1668,-4.1669,-4.1676,-4.1806,-4.1763,-4.1815,-4.1895,-4.1936,-4.1951,-4.1965,-4.201,-4.2027,-4.1824,-4.1824,-4.1825,0,-4.1657,-4.1703,-4.1664,-4.1705,-4.1714,-4.1652,-4.1705,-4.1708,-4.1713,-4.1721,-4.1684,-4.1736,-4.1732,-4.1799,-4.1831,-4.1839,-4.1852,-4.1814,-4.1953,-4.1966,-4.1978,-4.202,-4.2038,-4.183,-4.183,-4.1829,-4.1829,0,-4.1795,-4.1829,-4.1872,-4.1879,-4.1893,-4.1941,-4.1908,-4.1928,-4.1899,-4.1882,-4.1935,-4.1928,-4.1946,-4.196,-4.1932,-4.2024,-4.2003,-4.1961,-4.1894,-4.2004,-4.2043,-4.2059,-4.1839,-4.1837,-4.1835,-4.1834,0,0,-4.1977,-4.1964,-4.198,-4.1982,-4.1978,-4.2002,-4.2048,-4.2066,-4.2083,-4.2091,-4.2126,-4.2165,-4.2126,-4.2133,-4.2105,-4.2142,-4.2244,-4.2094,-4.2093,-4.212,-4.2343,-4.2373,-4.2393,-4.2217,-4.222,-4.2222,-4.2343,0,-4.2097,-4.2172,-4.2139,-4.2218,-4.2248,-4.2191,-4.2231,-4.2232,-4.2219,-4.2242,-4.2227,-4.2255,-4.2202,-4.2206,-4.224,-4.2224,-4.2287,-4.2215,-4.2248,-4.225,-4.2247,-4.2413,-4.2444,-4.2558,-4.2358,-4.236,-4.2362,0,-4.2246,-4.2259,-4.2341,-4.2332,-4.2343,-4.2379,-4.2393,-4.2417,-4.2418,-4.2406,-4.2416,-4.238,-4.2424,-4.2361,-4.242,-4.2372,-4.2384,-4.2379,-4.2383,-4.2381,-4.231,-4.2414,-4.2594,-4.261,-4.2386,-4.2384,-4.2382,0,-4.2368,-4.2407,-4.246,-4.2465,-4.2456,-4.2482,-4.248,-4.2478,-4.2491,-4.2504,-4.2512,-4.2531,-4.254,-4.2556,-4.2526,-4.2483,-4.259,-4.2524,-4.2579,-4.258,-4.2601,-4.2599,-4.2783,-4.2615,-4.2615,-4.2614,-4.2614,0,-4.2503,-4.2554,-4.2515,-4.2548,-4.2604,-4.2567,-4.2624,-4.2616,-4.2615,-4.2645,-4.2599,-4.2629,-4.2589,-4.2615,-4.2593,-4.2645,-4.265,-4.2641,-4.2633,-4.2643,-4.2644,-4.2648,-4.2638,-4.2619,-4.2618,-4.2617,-4.2616,0,-4.2646,-4.2622,-4.2677,-4.2665,-4.2663,-4.2705,-4.2695,-4.2725,-4.2709,-4.2748,-4.2756,-4.2731,-4.2759,-4.2732,-4.2759,-4.2744,-4.2813,-4.2796,-4.2812,-4.2806,-4.2862,-4.2856,-4.3052,-4.3075,-4.2895,-4.2897,-4.2899,0,-4.2732,-4.2771,-4.2764,-4.2781,-4.2781,-4.281,-4.2823,-4.2789,-4.2805,-4.2811,-4.2841,-4.2866,-4.2883,-4.2931,-4.2915,-4.2936,-4.2917,-4.2985,-4.292,-4.2928,-4.2915,-4.2912,-4.2915,-4.2996,-4.2999,-4.3,-4.3002,0,-4.2887,-4.2874,-4.2895,-4.2913,-4.2931,-4.2944,-4.2952,-4.2969,-4.2935,-4.2955,-4.2984,-4.2998,-4.3026,-4.3051,-4.3067,-4.3065,-4.3027,-4.3023,-4.3036,-4.3045,-4.3051,-4.3046,-4.2845,-4.3018,-4.3016,-4.3015,-4.3014,-4.3013,-4.3002,-4.3034,-4.3034,-4.306,-4.3063,-4.3073,-4.3101,-4.309,-4.3113,-4.3133,-4.3112,-4.3147,-4.3149,-4.3167,-4.317,-4.3196,-4.3168,-4.3188,-4.3192,-4.3197,-4.3204,-4.3051,-4.32,-4.3199,-4.3199,-4.3198,-4.3198,0,-4.3152,-4.315,-4.3175,-4.3189,-4.321,-4.3175,-4.3184,-4.3203,-4.3234,-4.324,-4.3258,-4.3292,-4.3316,-4.3304,-4.3325,-4.3349,-4.3333,-4.3356,-4.3352,-4.3352,-4.3229,-4.3214,-4.3369,-4.3369,-4.3369,-4.3368,-4.3368,-4.3368,-4.3232,-4.3283,-4.3271,-4.3324,-4.3322,-4.3355,-4.3363,-4.3372,-4.3376,-4.3416,-4.3436,-4.3428,-4.3427,-4.3448,-4.3469,-4.3465,-4.3474,-4.3502,-4.3492,-4.3377,-4.336,-4.3344,-4.3329,-4.3505,-4.3506,-4.3611,-4.3612,-4.3613]},{"header":{"parameterUnit":"m.s-1","parameterCategory":1,"la1":30.2991,"la2":30.254,"lo1":-89.0895,"lo2":-89.0444,"dy":0.0017,"dx":0.0017,"nx":28,"ny":28,"refTime":"2025-06-03T03:00:00:Z","depth":0,"parameterNumber":3,"parameterNumberName":"V-component_of_WINDS"},"data":[0,0,0,0,0,0,0,0,0,0,0,0,0,0,0,0,0,0,0,0,0,0,0,0,0,0,0,0,0,0,0,0,0,0,0,0,0,0,0,0,0,0,0,0,0,0,0,0,0,0,0,0,0,0,0,0,0,0,1.6896,1.6896,0,1.6898,1.6898,1.6898,1.6921,1.6922,1.6923,1.6923,1.6922,1.6922,1.6921,0,0,0,0,0,0,0,0,0,0,0,0,0,1.6908,1.6908,1.6896,1.6896,1.6896,1.6898,1.6898,1.6898,1.6921,1.6922,1.6923,1.6923,1.6923,1.6922,1.6921,0,0,0,0,0,0,0,0,0,0,0,0,0,1.6906,1.6908,1.6896,1.6908,1.6909,1.6898,1.6898,1.6898,1.6921,1.6922,1.6923,1.6924,1.6923,1.6922,1.6921,1.6898,0,0,1.6919,1.6918,0,0,0,0,0,0,0,0,1.6906,1.6905,1.6906,1.6907,1.6908,1.6911,1.6902,1.6898,1.6921,1.6916,1.6923,1.6924,1.6917,1.6917,1.6916,1.6898,1.6898,1.6918,1.6918,1.6918,1.6917,0,0,0,0,0,0,0,1.6906,1.6905,1.6897,1.6906,1.6907,1.6912,1.6913,1.6902,1.6912,1.6917,1.6918,1.6919,1.6918,1.6916,1.6916,1.6898,1.6919,1.6918,1.6917,1.6917,1.6863,1.6862,0,0,0,0,0,0,1.6905,1.6905,1.6896,1.6897,1.6909,1.6911,1.6912,1.6909,1.6912,1.6913,1.6918,1.692,1.6917,1.6917,1.6916,1.689,1.6918,1.6917,1.6916,1.6864,1.6863,1.6862,0,0,0,0,0,0,1.6905,1.6904,1.6896,1.6901,1.6901,1.691,1.6906,1.6908,1.6907,1.6913,1.6915,1.6914,1.6918,1.6917,1.6903,1.689,1.6916,1.6916,1.6865,1.6864,1.6862,1.6837,0,0,0,0,0,0,1.6905,1.6904,1.6896,1.6901,1.6901,1.6884,1.6906,1.6908,1.6905,1.6908,1.691,1.6911,1.6919,1.6904,1.6902,1.6889,1.6915,1.6866,1.6864,1.6863,1.6839,1.6834,1.6831,0,0,0,0,0,1.6906,1.6888,1.6895,1.6894,1.6891,1.6883,1.6883,1.6893,1.6904,1.6896,1.69,1.6911,1.6892,1.6902,1.69,1.6887,1.6867,1.6865,1.6863,1.684,1.6835,1.6831,0,0,0,0,0,0,1.6879,1.6888,1.6897,1.688,1.6881,1.6887,1.6877,1.6887,1.6884,1.6886,1.6897,1.6898,1.6882,1.6883,1.6895,1.6865,1.6881,1.6879,1.6865,1.686,1.6856,1.6856,1.6914,0,0,0,0,0,1.6871,1.6865,1.6874,1.6858,1.6858,1.6868,1.6865,1.6872,1.6873,1.6873,1.6876,1.6876,1.687,1.6865,1.686,1.6839,1.684,1.6829,1.6825,1.6822,1.6819,1.6809,1.6804,1.6855,1.6855,1.6855,0,0,1.6855,1.686,1.6855,1.6853,1.6854,1.6847,1.6867,1.6859,1.6853,1.6871,1.6859,1.6861,1.6861,1.6844,1.6836,1.6844,1.6806,1.6819,1.6817,1.6816,1.6806,1.6801,1.6797,1.6853,1.6854,1.6854,0,0,1.6822,1.6825,1.6812,1.6814,1.6816,1.6823,1.682,1.6825,1.6827,1.6815,1.6829,1.6822,1.6811,1.6811,1.6809,1.6777,1.6787,1.6775,1.6754,1.6744,1.674,1.6736,1.6725,1.672,1.6772,1.6772,1.6772,0,1.6801,1.6792,1.6804,1.6795,1.6794,1.6811,1.6799,1.6799,1.6799,1.6797,1.6807,1.6794,1.6795,1.6778,1.6771,1.6769,1.6765,1.6774,1.674,1.6736,1.6733,1.6722,1.6717,1.6771,1.6771,1.6771,1.6771,0,1.6766,1.6759,1.6748,1.675,1.6747,1.6736,1.6746,1.6742,1.6751,1.6756,1.6743,1.6745,1.6741,1.6738,1.6745,1.6722,1.6727,1.6738,1.6754,1.6727,1.6716,1.6712,1.6769,1.6769,1.677,1.677,0,0,1.6714,1.6724,1.672,1.6721,1.6725,1.672,1.6709,1.6706,1.6702,1.6702,1.6693,1.6684,1.6695,1.6693,1.6701,1.6692,1.6666,1.6704,1.6704,1.6696,1.664,1.6631,1.6626,1.6673,1.6672,1.6672,1.664,0,1.6682,1.6666,1.6678,1.6659,1.6653,1.667,1.6661,1.6662,1.6667,1.6662,1.6667,1.6661,1.6675,1.6674,1.6666,1.6671,1.6655,1.6673,1.6664,1.6663,1.6663,1.6621,1.6611,1.6581,1.6636,1.6635,1.6635,0,1.6642,1.6641,1.6623,1.6629,1.6627,1.6618,1.6617,1.6612,1.6614,1.6618,1.6617,1.6627,1.6617,1.6634,1.6619,1.6632,1.6629,1.6631,1.663,1.6628,1.6647,1.6618,1.6572,1.6567,1.6629,1.6629,1.6629,0,1.6606,1.6601,1.6589,1.6589,1.6596,1.659,1.6592,1.6595,1.6593,1.6591,1.659,1.6587,1.6585,1.6582,1.6591,1.6602,1.6575,1.6593,1.6578,1.6577,1.657,1.657,1.6523,1.657,1.657,1.657,1.657,0,1.6569,1.6556,1.6573,1.6565,1.6552,1.6565,1.6551,1.6556,1.6558,1.6551,1.6566,1.6559,1.6572,1.6566,1.6573,1.656,1.6559,1.6562,1.6563,1.656,1.6559,1.6557,1.6559,1.6569,1.6569,1.6569,1.6569,0,1.6526,1.6536,1.6525,1.6533,1.6535,1.6524,1.6531,1.6524,1.6531,1.6522,1.6521,1.653,1.6524,1.6534,1.6528,1.6533,1.6515,1.652,1.6514,1.6516,1.65,1.6501,1.6448,1.6442,1.6494,1.6493,1.6493,0,1.6501,1.6492,1.65,1.6497,1.6499,1.6494,1.6492,1.6505,1.6502,1.6504,1.6497,1.6492,1.6489,1.6479,1.6485,1.6481,1.6486,1.6468,1.6485,1.6482,1.6485,1.6485,1.6484,1.6464,1.6463,1.6463,1.6462,0,1.6455,1.6461,1.6458,1.6457,1.6455,1.6455,1.6455,1.6452,1.6466,1.6462,1.6456,1.6454,1.645,1.6445,1.6443,1.6445,1.6455,1.6457,1.6453,1.6449,1.6446,1.6447,1.6504,1.6458,1.6458,1.6459,1.6459,1.6459,1.642,1.6413,1.6418,1.6414,1.6416,1.6417,1.6411,1.6417,1.6414,1.6411,1.6419,1.6412,1.6415,1.6413,1.6414,1.6408,1.6416,1.641,1.6409,1.6407,1.6405,1.6448,1.6408,1.6408,1.6408,1.6408,1.6408,0,1.6375,1.6379,1.6376,1.6377,1.6374,1.6386,1.6388,1.6384,1.6378,1.638,1.6377,1.6371,1.6367,1.6373,1.637,1.6364,1.6369,1.6363,1.6363,1.6363,1.6398,1.6401,1.6359,1.6359,1.6359,1.6359,1.6359,1.6359,1.6351,1.634,1.6347,1.6337,1.6341,1.6335,1.6334,1.6335,1.6336,1.6329,1.6326,1.6331,1.6334,1.6332,1.6328,1.633,1.6328,1.632,1.6323,1.6356,1.636,1.6365,1.6368,1.6319,1.6319,1.6288,1.6288,1.6288]}]]